Weather History for CYTZ - November, 2011

Change the Weather History Date:

Wednesday, November 30, 2011

  Actual Average Record
Temperature  
Mean Temperature 35 °F -  
Max Temperature 38 °F 35 °F 55 °F (1998)
Min Temperature 32 °F 24 °F 23 °F (1999)
Degree Days  
Heating Degree Days 30    
Moisture  
Dew Point 32 °F    
Average Humidity 85    
Maximum Humidity 100    
Minimum Humidity 45    
Precipitation  
Precipitation 0.03 in 0.10 in - ()
Sea Level Pressure  
Sea Level Pressure 29.64 in    
Wind  
Wind Speed 11 mph ()    
Max Wind Speed 18 mph    
Max Gust Speed 101 mph    
Visibility 6.9 miles    
Events Rain , Snow    
Averages and records for this station are not official NWS values.
T = Trace of Precipitation, MM = Missing Value Source: Averaged Metar Reports

Daily Weather History Graph

Daily Weather History Graph

Search for Another Location

Airport or City:

Trip Planner

Search our weather history database for the weather conditions in past years. The results will help you decide how hot, cold, wet, or windy it might be!

Date:

Astronomy

Nov. 30, 2011 Rise Set
Actual Time 7:29 AM EST 4:42 PM EST
Civil Twilight 6:57 AM EST 5:14 PM EST
Nautical Twilight 6:21 AM EST 5:50 PM EST
Astronomical Twilight 5:47 AM EST 6:24 PM EST
Moon 11:41 AM EST (11/30) 10:44 PM EST (11/30)
Length of Visible Light 10h 16m
Length of Day
9h 12m
Waxing Crescent, 33% of the Moon is Illuminated
Nov 30
Waxing Crescent
Dec 2
First Quarter
Dec 10
Full
Dec 17
Last Quarter
Dec 24
New

Hourly Weather History & Observations

Time (EST) Temp. Windchill Dew Point Humidity Pressure Visibility Wind Dir Wind Speed Gust Speed Precip Events Conditions
12:00 AM 41.0 °F 35.2 °F 37.4 °F 87% 29.52 in 9.0 mi NNW 9.2 mph - N/A Rain Light Rain
12:30 AM 41.0 °F 37.1 °F 37.4 °F 87% 29.50 in 9.0 mi NNW 5.8 mph - N/A   Overcast
1:00 AM 40 °F - 38 °F 88% 29.50 in 10 mi NW 5.8 mph - -   Clear
1:00 AM 41.0 °F 38.0 °F 37.4 °F 87% 29.49 in 9.0 mi NW 4.6 mph - N/A   Overcast
1:11 AM 41.0 °F 37.1 °F 37.4 °F 87% 29.49 in 9.0 mi WNW 5.8 mph - N/A   Overcast
1:26 AM 41.0 °F 37.1 °F 37.4 °F 87% 29.49 in 9.0 mi WNW 5.8 mph - N/A   Overcast
1:29 AM 39.2 °F 33.6 °F 37.4 °F 93% 29.49 in 9.0 mi WNW 8.1 mph - N/A   Overcast
2:00 AM 39.2 °F 33.0 °F 37.4 °F 93% 29.49 in 9.0 mi West 9.2 mph - N/A   Overcast
2:22 AM 39.2 °F 32.5 °F 35.6 °F 87% 29.49 in 9.0 mi West 10.4 mph - N/A   Overcast
3:00 AM 37.4 °F 30.3 °F 35.6 °F 93% 29.48 in 9.0 mi West 10.4 mph - N/A   Overcast
3:08 AM 37.4 °F 31.4 °F 35.6 °F 93% 29.48 in 9.0 mi West 8.1 mph - N/A   Overcast
3:53 AM 37.4 °F 30.8 °F 35.6 °F 93% 29.48 in 9.0 mi West 9.2 mph 101.3 mph N/A   Overcast
4:00 AM 37.4 °F 30.3 °F 35.6 °F 93% 29.47 in 9.0 mi West 10.4 mph - N/A   Overcast
5:00 AM 39.2 °F 32.5 °F 35.6 °F 87% 29.47 in 9.0 mi West 10.4 mph - N/A   Overcast
5:27 AM 39.2 °F 32.5 °F 37.4 °F 93% 29.47 in 9.0 mi WSW 10.4 mph - N/A Rain Light Rain
5:39 AM 39.2 °F 32.0 °F 37.4 °F 93% 29.47 in 9.0 mi WSW 11.5 mph - N/A   Overcast
5:43 AM 39.2 °F 31.6 °F 37.4 °F 93% 29.47 in 6.0 mi West 12.7 mph - N/A Rain Light Rain
5:44 AM 39.2 °F 31.6 °F 37.4 °F 93% 29.47 in 5.0 mi West 12.7 mph - N/A Rain Light Rain
6:00 AM 39.2 °F 31.2 °F 35.6 °F 87% 29.48 in 4.0 mi West 13.8 mph - N/A Rain Light Rain
6:23 AM 39.2 °F 31.2 °F 35.6 °F 87% 29.48 in 6.0 mi West 13.8 mph - N/A Rain Light Rain
6:44 AM 39.2 °F 31.2 °F 35.6 °F 87% 29.48 in 9.0 mi West 13.8 mph - N/A   Overcast
6:48 AM 39.2 °F 31.2 °F 35.6 °F 87% 29.48 in 9.0 mi West 13.8 mph - N/A   Overcast
6:58 AM 37.4 °F 28.5 °F 35.6 °F 93% 29.48 in 9.0 mi West 15.0 mph - N/A   Overcast
7:00 AM 38 °F - 35 °F 83% 29.48 in 10 mi West 15.0 mph - -   Clear
7:00 AM 37.4 °F 28.2 °F 35.6 °F 93% 29.48 in 9.0 mi WNW 16.1 mph - N/A   Overcast
8:00 AM 37.4 °F 28.9 °F 33.8 °F 87% 29.51 in 9.0 mi West 13.8 mph - N/A   Overcast
8:08 AM 37.4 °F 29.8 °F 33.8 °F 87% 29.51 in 9.0 mi West 11.5 mph 18.4 mph N/A   Overcast
8:40 AM 37.4 °F 28.2 °F 33.8 °F 87% 29.53 in 9.0 mi WNW 16.1 mph 23.0 mph N/A Rain Light Rain
9:00 AM 37.4 °F 29.3 °F 33.8 °F 87% 29.53 in 9.0 mi WNW 12.7 mph - N/A Rain Light Rain
9:05 AM 37.4 °F 28.5 °F 33.8 °F 87% 29.54 in 9.0 mi West 15.0 mph 20.7 mph N/A   Overcast
9:43 AM 37.4 °F 27.8 °F 30.2 °F 75% 29.58 in 9.0 mi WNW 17.3 mph 28.8 mph N/A   Mostly Cloudy
9:44 AM 37.4 °F 28.9 °F 32.0 °F 81% 29.58 in 9.0 mi WNW 13.8 mph 28.8 mph N/A   Mostly Cloudy
10:00 AM 37.4 °F 28.5 °F 32.0 °F 81% 29.59 in 9.0 mi WNW 15.0 mph 21.9 mph N/A   Overcast
10:04 AM 37.4 °F 28.2 °F 32.0 °F 81% 29.60 in 9.0 mi WNW 16.1 mph 21.9 mph N/A   Overcast
10:10 AM 37.4 °F 28.9 °F 32.0 °F 81% 29.60 in 9.0 mi WNW 13.8 mph 21.9 mph N/A Rain Light Rain
10:20 AM 37.4 °F 29.3 °F 32.0 °F 81% 29.61 in 9.0 mi WNW 12.7 mph 23.0 mph N/A   Overcast
10:40 AM 37.4 °F 28.2 °F 32.0 °F 81% 29.62 in 9.0 mi WNW 16.1 mph 24.2 mph N/A Rain Light Rain
10:44 AM 35.6 °F 26.6 °F 30.2 °F 81% 29.63 in 9.0 mi NW 13.8 mph 24.2 mph N/A Rain Light Rain
10:47 AM 35.6 °F 27.1 °F 32.0 °F 87% 29.63 in 9.0 mi WNW 12.7 mph 24.2 mph N/A Rain Light Rain
10:48 AM 35.6 °F 26.6 °F 32.0 °F 87% 29.63 in 8.0 mi WNW 13.8 mph 20.7 mph N/A Rain Light Rain
10:50 AM 35.6 °F 25.5 °F 30.2 °F 81% 29.63 in 4.0 mi NW 17.3 mph - N/A Rain Light Rain
10:52 AM 35.6 °F 25.2 °F 30.2 °F 81% 29.63 in 2.5 mi WNW 18.4 mph - N/A Rain Light Rain
10:53 AM 33.8 °F 23.2 °F 30.2 °F 87% 29.64 in 2.0 mi NW 17.3 mph 23.0 mph N/A Rain , Snow Light Snow
10:58 AM 33.8 °F 25.3 °F 32.0 °F 93% 29.64 in 1.0 mi WNW 11.5 mph 23.0 mph N/A Snow Light Snow
11:02 AM 33.8 °F 22.8 °F 32.0 °F 93% 29.64 in 1.0 mi NW 18.4 mph 26.5 mph N/A Snow Light Snow
11:05 AM 33.8 °F 23.9 °F 32.0 °F 93% 29.65 in 0.8 mi WNW 15.0 mph 26.5 mph N/A Snow Light Snow
11:19 AM 33.8 °F 25.8 °F 32.0 °F 93% 29.65 in 0.8 mi WNW 10.4 mph 21.9 mph N/A Snow Light Snow
11:21 AM 33.8 °F 25.3 °F 32.0 °F 93% 29.66 in 0.8 mi WNW 11.5 mph 21.9 mph N/A Snow Light Snow
11:22 AM 33.8 °F 24.8 °F 32.0 °F 93% 29.66 in 0.8 mi WNW 12.7 mph 19.6 mph N/A Snow Light Snow
11:24 AM 33.8 °F 23.5 °F 32.0 °F 93% 29.66 in 0.8 mi WNW 16.1 mph - N/A Snow Light Snow
11:29 AM 32.0 °F 20.8 °F 32.0 °F 100% 29.66 in 1.0 mi WNW 17.3 mph - N/A Snow Light Snow
11:34 AM 32.0 °F 22.5 °F 32.0 °F 100% 29.66 in 1.0 mi WNW 12.7 mph 21.9 mph N/A Snow Light Snow
11:40 AM 32.0 °F 21.2 °F 32.0 °F 100% 29.67 in 1.0 mi NW 16.1 mph - N/A Snow Light Snow
11:46 AM 32.0 °F 21.6 °F 30.2 °F 93% 29.68 in 1.0 mi NW 15.0 mph 21.9 mph N/A Snow Light Snow
11:52 AM 32.0 °F 22.1 °F 30.2 °F 93% 29.68 in 1.2 mi NW 13.8 mph 21.9 mph N/A Snow Light Snow
11:58 AM 33.8 °F 23.5 °F 30.2 °F 87% 29.68 in 2.0 mi NW 16.1 mph 25.3 mph N/A Snow Light Snow
12:00 PM 33.8 °F 24.3 °F 30.2 °F 87% 29.68 in 2.2 mi WNW 13.8 mph 25.3 mph N/A Snow Light Snow
12:02 PM 33.8 °F 23.9 °F 30.2 °F 87% 29.68 in 2.2 mi WNW 15.0 mph 25.3 mph N/A Snow Light Snow
12:04 PM 33.8 °F 24.8 °F 30.2 °F 87% 29.68 in 2.0 mi WNW 12.7 mph 21.9 mph N/A Snow Light Snow
12:24 PM 33.8 °F 25.3 °F 30.2 °F 87% 29.69 in 2.2 mi WNW 11.5 mph 17.3 mph N/A Snow Light Snow
12:27 PM 33.8 °F 25.8 °F 30.2 °F 87% 29.69 in 3.0 mi WNW 10.4 mph 17.3 mph N/A Snow Light Snow
12:37 PM 33.8 °F 25.3 °F 30.2 °F 87% 29.70 in 6.0 mi WNW 11.5 mph - N/A Snow Light Snow
12:59 PM 33.8 °F 25.3 °F 32.0 °F 93% 29.70 in 9.0 mi WNW 11.5 mph 19.6 mph N/A Snow Light Snow
1:00 PM 34 °F - 32 °F 88% 29.71 in 10 mi WNW 12.7 mph - - Snow Light Snow
1:00 PM 33.8 °F 24.8 °F 32.0 °F 93% 29.70 in 9.0 mi WNW 12.7 mph - N/A Snow Light Snow
1:03 PM 35.6 °F 26.2 °F 32.0 °F 87% 29.71 in 9.0 mi West 15.0 mph 24.2 mph N/A Rain , Snow Light Snow
1:04 PM 35.6 °F 25.2 °F 32.0 °F 87% 29.70 in 9.0 mi WNW 18.4 mph 25.3 mph N/A Rain Light Rain
1:08 PM 35.6 °F 26.2 °F 32.0 °F 87% 29.71 in 9.0 mi NW 15.0 mph 25.3 mph N/A Rain Light Rain
1:17 PM 35.6 °F 26.2 °F 30.2 °F 81% 29.72 in 9.0 mi NW 15.0 mph 21.9 mph N/A   Overcast
1:21 PM 35.6 °F 26.2 °F 30.2 °F 81% 29.72 in 9.0 mi NW 15.0 mph 21.9 mph N/A   Overcast
2:00 PM 37.4 °F 27.5 °F 28.4 °F 70% 29.75 in 9.0 mi WNW 18.4 mph 27.6 mph N/A   Mostly Cloudy
3:00 PM 39.2 °F 30.2 °F 23.0 °F 52% 29.78 in 9.0 mi NW 17.3 mph 25.3 mph N/A   Scattered Clouds
4:00 PM 37.4 °F 27.8 °F 23.0 °F 56% 29.85 in 9.0 mi NW 17.3 mph 25.3 mph N/A   Clear
5:00 PM 37.4 °F 28.9 °F 24.8 °F 60% 29.90 in 9.0 mi WNW 13.8 mph 24.2 mph N/A   Mostly Cloudy
6:00 PM 35.6 °F 27.5 °F 24.8 °F 65% 29.94 in 9.0 mi WNW 11.5 mph - N/A   Clear
7:00 PM 35 °F - 21 °F 45% 29.99 in 10 mi West 6.9 mph - -  
7:00 PM 35.6 °F 29.2 °F 21.2 °F 56% 29.99 in 9.0 mi West 8.1 mph - N/A   Clear
8:00 PM 33.8 °F 27.0 °F 23.0 °F 65% 30.04 in 9.0 mi West 8.1 mph - N/A   Clear
9:00 PM 33.8 °F 28.6 °F 24.8 °F 70% 30.06 in 9.0 mi West 5.8 mph - N/A   Clear
10:00 PM 35.6 °F - 26.6 °F 70% 30.07 in 9.0 mi West 2.3 mph - N/A   Clear
11:00 PM 37.4 °F 31.4 °F 30.2 °F 75% 30.10 in 9.0 mi West 8.1 mph - N/A   Overcast